Regional Weather Roundup
Issued by NWS

Home | Current Version | Previous Version | Text Only | Print | Product List | Glossary Off
Versions: 1 2 3 4 5 6 7 8 9 10 11 12 13 14 15 16 17 18 19 20 21 22 23 24 25 26 27 28 29 30 31 32 33 34 35 36 37 38 39 40 41 42 43 44 45 46 47 48 49 50

000
ASUS43 KBIS 282320
RWRND

NORTH DAKOTA REGIONAL WEATHER ROUNDUP
NATIONAL WEATHER SERVICE BISMARCK ND
500 PM CST SUN DEC 28 2014

NOTE: "FAIR" INDICATES FEW OR NO CLOUDS BELOW 12,000 FEET WITH NO
SIGNIFICANT WEATHER AND/OR OBSTRUCTIONS TO VISIBILITY.


NDZ001>003-009>011-017-290000-
NORTHWEST NORTH DAKOTA

CITY           SKY/WX    TMP DP  RH WIND       PRES   REMARKS
WILLISTON      CLOUDY     8   0  69 N13       30.28R WCI  -8
MINOT          CLOUDY     0  -6  76 N7        30.32R WCI -13
MINOT AFB      PTCLDY    -3  -6  86 N7        30.33R WCI -16
$$

NDZ018>021-031>035-040>046-290000-
SOUTHWEST NORTH DAKOTA

CITY           SKY/WX    TMP DP  RH WIND       PRES   REMARKS
BISMARCK       CLOUDY     7   3  84 NE12      30.26R WCI  -8
DICKINSON      LGT SNOW  14   8  77 NE15      30.11R WCI  -1
GARRISON         N/A      5   0  79 NE8       30.26R WCI  -8
HETTINGER ARPT LGT SNOW  18  14  84 E13       30.09R FOG     WCI   5
$$

NDZ004>008-012>016-024-026-027-054-290000-
NORTHEAST NORTH DAKOTA

CITY           SKY/WX    TMP DP  RH WIND       PRES   REMARKS
GRAND FORKS    CLEAR     -3  -9  75 N9        30.40R WCI -19
GRND FRKS AFB  CLEAR     -4  -8  82 N8        30.39R WCI -19
DEVILS LAKE    CLEAR     -4 -11  71 NE5       30.33R WCI -15
$$

NDZ022-023-025-028>030-036>039-047>053-290000-
SOUTHEAST NORTH DAKOTA

CITY           SKY/WX    TMP DP  RH WIND       PRES   REMARKS
FARGO          CLEAR      2  -7  66 N13       30.36R WCI -15
JAMESTOWN      CLOUDY     1  -6  72 N9        30.29R WCI -14
$$



USA.gov is the U.S. government's official web portal to all federal, state and local government web resources and services.